Location: Bonningues
(50.7927°N, 2.0150°E)
Time: 08:23:52
(UTC+00:00)

Cosmos 44 - Pass Details

Date: 08 August 2020
Orbit: 582 x 779 km, 65.1° (Epoch: 26 September)

Event Time Altitude Azimuth Distance (km) Brightness Sun altitude
Rises 22:53:54 0° 317° (NW) 3,029 7.7 -22.0°
Reaches altitude 10° 22:56:12 10° 312° (NW) 2,142 6.6 -22.1°
Maximum altitude 23:00:58 53° 237° (WSW) 875 3.6 -22.3°
Enters shadow 23:01:36 50° 209° (SSW) 918 3.6 -22.3°
